Franklin, NC

7:55 AM EST on February 25, 2018 (GMT -0500)
Franklin

Weather History for K1A5 - January, 2005

Change the Weather History Date:

Monday, January 31, 2005

  Actual Average (KTOC) Record (KTOC)
Temperature  
Mean Temperature 38 °F -  
Max Temperature 44 °F 55 °F 73 °F (2017)
Min Temperature 32 °F 32 °F 21 °F (2014)
Degree Days  
Heating Degree Days 27    
Moisture  
Dew Point 33 °F    
Average Humidity 81    
Maximum Humidity 100    
Minimum Humidity 61    
Precipitation  
Precipitation 0.00 in - - ()
Sea Level Pressure  
Sea Level Pressure 30.17 in    
Wind  
Wind Speed 0 mph (SE)    
Max Wind Speed 6 mph    
Max Gust Speed -    
Visibility 9 miles    
Events      
Averages and records for this station are not official NWS values.
T = Trace of Precipitation, MM = Missing Value Source: NWS Daily Summary

Daily Weather History Graph

Daily Weather History Graph

Search for Another Location

Airport or City:

Trip Planner

Search our weather history database for the weather conditions in past years. The results will help you decide how hot, cold, wet, or windy it might be!

Date:

Astronomy

Jan. 31, 2005 Rise Set
Actual Time 7:33 AM EST 6:01 PM EST
Civil Twilight 7:06 AM EST 6:28 PM EST
Nautical Twilight 6:36 AM EST 6:58 PM EST
Astronomical Twilight 6:06 AM EST 7:28 PM EST
Moon No Moon Rise 10:46 AM EST (1/31)
Length of Visible Light 11h 21m
Length of Day
10h 27m
Waning Gibbous, 67% of the Moon is Illuminated
Jan 31
Waning Gibbous
Feb 2
Last Quarter
Feb 8
New
Feb 15
First Quarter
Feb 23
Full

Hourly Weather History & Observations

Time (EST) Temp. Windchill Dew Point Humidity Pressure Visibility Wind Dir Wind Speed Gust Speed Precip Events Conditions
12:00 AM 32.0 °F - 30.2 °F 93% 30.10 in 10.0 mi Calm Calm - N/A   Overcast
12:20 AM 32.0 °F - 30.2 °F 93% 30.10 in 10.0 mi Calm Calm - N/A   Overcast
12:40 AM 32.0 °F - 32.0 °F 100% 30.11 in 7.0 mi Calm Calm - N/A   Overcast
1:00 AM 32.0 °F - 32.0 °F 100% 30.11 in 10.0 mi Calm Calm - N/A   Overcast
1:20 AM 33.8 °F - 32.0 °F 93% 30.11 in 7.0 mi Calm Calm - N/A   Overcast
1:40 AM 33.8 °F - 32.0 °F 93% 30.11 in 10.0 mi Calm Calm - N/A   Overcast
2:00 AM 33.8 °F - 32.0 °F 93% 30.11 in 10.0 mi Calm Calm - N/A   Overcast
2:20 AM 33.8 °F - 32.0 °F 93% 30.11 in 10.0 mi Calm Calm - N/A   Overcast
2:40 AM 33.8 °F - 32.0 °F 93% 30.11 in 10.0 mi Calm Calm - N/A   Overcast
3:00 AM 33.8 °F - 32.0 °F 93% 30.11 in 10.0 mi Calm Calm - N/A   Overcast
3:20 AM 33.8 °F - 32.0 °F 93% 30.11 in 7.0 mi Calm Calm - N/A   Overcast
3:40 AM 35.6 °F - 32.0 °F 87% 30.11 in 7.0 mi Calm Calm - N/A   Overcast
4:00 AM 35.6 °F - 32.0 °F 87% 30.12 in 7.0 mi Calm Calm - N/A   Overcast
4:20 AM 35.6 °F - 32.0 °F 87% 30.12 in 10.0 mi Calm Calm - N/A   Overcast
4:40 AM 35.6 °F - 32.0 °F 87% 30.12 in 10.0 mi Calm Calm - N/A   Overcast
5:00 AM 35.6 °F - 32.0 °F 87% 30.13 in 10.0 mi Calm Calm - N/A   Overcast
5:20 AM 35.6 °F - 32.0 °F 87% 30.13 in 7.0 mi Calm Calm - N/A   Overcast
5:40 AM 35.6 °F - 32.0 °F 87% 30.14 in 7.0 mi Calm Calm - N/A   Overcast
6:00 AM 35.6 °F - 32.0 °F 87% 30.15 in 7.0 mi Calm Calm - N/A   Overcast
6:20 AM 35.6 °F - 33.8 °F 93% 30.16 in 7.0 mi Calm Calm - N/A   Overcast
6:40 AM 35.6 °F - 33.8 °F 93% 30.16 in 7.0 mi Calm Calm - N/A   Overcast
7:20 AM 35.6 °F - 33.8 °F 93% 30.19 in 7.0 mi Calm Calm - N/A   Overcast
7:40 AM 35.6 °F - 33.8 °F 93% 30.19 in 7.0 mi Calm Calm - N/A   Overcast
8:00 AM 35.6 °F - 33.8 °F 93% 30.20 in 7.0 mi Calm Calm - N/A   Overcast
8:20 AM 35.6 °F - 33.8 °F 93% 30.21 in 5.0 mi Calm Calm - N/A   Overcast
8:40 AM 35.6 °F - 33.8 °F 93% 30.20 in 7.0 mi Calm Calm - N/A   Overcast
9:00 AM 37.4 °F - 33.8 °F 87% 30.21 in 7.0 mi Calm Calm - N/A   Overcast
9:20 AM 37.4 °F - 33.8 °F 87% 30.22 in 7.0 mi Calm Calm - N/A   Overcast
9:40 AM 37.4 °F - 33.8 °F 87% 30.23 in 10.0 mi Calm Calm - N/A   Overcast
10:00 AM 37.4 °F - 33.8 °F 87% 30.23 in 10.0 mi Calm Calm - N/A   Overcast
10:20 AM 39.2 °F - 33.8 °F 81% 30.23 in 10.0 mi Calm Calm - N/A   Overcast
10:40 AM 41.0 °F - 33.8 °F 76% 30.23 in 10.0 mi Calm Calm - N/A   Overcast
11:00 AM 41.0 °F 38.0 °F 33.8 °F 76% 30.22 in 10.0 mi ENE 4.6 mph - N/A   Overcast
11:20 AM 42.8 °F - 33.8 °F 70% 30.23 in 10.0 mi Calm Calm - N/A   Overcast
11:40 AM 42.8 °F - 33.8 °F 70% 30.22 in 10.0 mi Calm Calm - N/A   Overcast
12:00 PM 42.8 °F 41.1 °F 32.0 °F 66% 30.21 in 10.0 mi SE 3.5 mph - N/A   Overcast
12:20 PM 42.8 °F 40.1 °F 32.0 °F 66% 30.21 in 10.0 mi SSE 4.6 mph - N/A   Overcast
1:00 PM 42.8 °F 40.1 °F 32.0 °F 66% 30.19 in 10.0 mi SE 4.6 mph - N/A   Overcast
1:20 PM 42.8 °F 41.1 °F 32.0 °F 66% 30.18 in 10.0 mi SE 3.5 mph - N/A   Overcast
2:00 PM 42.8 °F 41.1 °F 32.0 °F 66% 30.17 in 10.0 mi South 3.5 mph - N/A   Overcast
2:40 PM 42.8 °F 41.1 °F 32.0 °F 66% 30.17 in 10.0 mi South 3.5 mph - N/A   Overcast
3:00 PM 42.8 °F 39.3 °F 32.0 °F 66% 30.16 in 10.0 mi South 5.8 mph - N/A   Overcast
3:20 PM 42.8 °F - 32.0 °F 66% 30.17 in 10.0 mi Calm Calm - N/A   Overcast
4:20 PM 44.6 °F - 32.0 °F 61% 30.18 in 10.0 mi Calm Calm - N/A   Overcast
4:40 PM 42.8 °F - 32.0 °F 66% 30.18 in 10.0 mi Calm Calm - N/A   Overcast
5:00 PM 42.8 °F - 32.0 °F 66% 30.18 in 10.0 mi Calm Calm - N/A   Overcast
5:20 PM 42.8 °F - 32.0 °F 66% 30.18 in 10.0 mi Calm Calm - N/A   Overcast
5:40 PM 42.8 °F - 32.0 °F 66% 30.18 in 10.0 mi Calm Calm - N/A   Overcast
6:00 PM 42.8 °F - 33.8 °F 70% 30.18 in 10.0 mi Calm Calm - N/A   Overcast
6:20 PM 42.8 °F - 33.8 °F 70% 30.18 in 10.0 mi Calm Calm - N/A   Overcast
6:40 PM 42.8 °F - 33.8 °F 70% 30.18 in 10.0 mi Calm Calm - N/A   Overcast
7:00 PM 41.0 °F - 33.8 °F 76% 30.17 in 10.0 mi Calm Calm - N/A   Overcast
7:20 PM 41.0 °F - 35.6 °F 81% 30.19 in 10.0 mi Calm Calm - N/A   Overcast
7:40 PM 41.0 °F - 35.6 °F 81% 30.21 in 10.0 mi Calm Calm - N/A   Overcast
8:00 PM 41.0 °F 39.0 °F 33.8 °F 76% 30.19 in 10.0 mi ENE 3.5 mph - N/A   Overcast
8:20 PM 41.0 °F - 35.6 °F 81% 30.21 in 10.0 mi Calm Calm - N/A   Overcast
9:00 PM 41.0 °F - 33.8 °F 76% 30.22 in 10.0 mi Calm Calm - N/A   Overcast
9:20 PM 42.8 °F - 33.8 °F 70% 30.23 in 10.0 mi Calm Calm - N/A   Overcast
9:40 PM 42.8 °F - 32.0 °F 66% 30.23 in 10.0 mi Calm Calm - N/A   Overcast
10:20 PM 41.0 °F 39.0 °F 33.8 °F 76% 30.22 in 10.0 mi ENE 3.5 mph - N/A   Overcast
11:40 PM 39.2 °F - 33.8 °F 81% 30.23 in 10.0 mi Calm Calm - N/A   Overcast